Regional Weather Roundup
Issued by NWS

Home | Current Version | Previous Version | Graphics & Text | Print | Product List | Glossary On
Versions: 1 2 3 4 5 6 7 8 9 10 11 12 13 14 15 16 17 18 19 20 21 22 23 24 25 26 27 28 29 30 31 32 33 34 35 36 37 38 39 40 41 42 43 44 45 46 47 48 49 50
000
ASUS43 KIND 020109
RWRIN

WEATHER ROUNDUP FOR INDIANA
NATIONAL WEATHER SERVICE INDIANAPOLIS IN
900 PM EDT SAT AUG 01 2015

NOTE: "FAIR" INDICATES FEW OR NO CLOUDS BELOW 12,000 FEET WITH NO
SIGNIFICANT WEATHER AND/OR OBSTRUCTIONS TO VISIBILITY.

* - STATION DOES NOT REPORT WEATHER SUCH AS PRECIPITATION OR FOG.

+ - STATION NOT QUALITY CONTROLLED BY THE NATIONAL WEATHER SERVICE.
    USE DATA WITH CAUTION...ESPECIALLY DEWPOINT AND RELATIVE
    HUMIDITY OBSERVATIONS.

INZ001>003-010>013-019-020-020200-
NORTHWEST INDIANA

CITY           SKY/WX    TMP DP  RH WIND       PRES   REMARKS
GARY /AIRPORT/ MOCLDY    82  61  47 W14G26    29.90S
KNOX *+        PTCLDY    77  57  50 W7        29.91S
LA PORTE +     PTCLDY    77  62  59 SW8       29.92S
MICHIGAN CITY+ PTCLDY    75  57  53 SW6       29.91R
MONTICELLO +   MOCLDY    75  64  67 SW5       29.94S
RENSSELAER +   MOCLDY    75  63  64 SW6       29.94S
VALPARAISO     PTCLDY    78  60  53 SW10      29.92S

$$

LMZ046-743>745-020200-
SOUTHERN LAKE MICHIGAN

STATION/POSITION TIME  TEMP    WIND        PRES    WAVE
                       AIR SEA DIR/SP/G            HT
                 (UTC) (F)     (DEG/KT/KT) (MB)    (FT)
BURNS HARBOR     0000   83     230/ 12/ 17 1012.9S
MICHIGAN CITY    0000   79     220/  7/  8   N/A
5NW MICH CITY    0100   78 75  250/ 12/ 14   N/A     1

$$

INZ004-005-014>016-021>024-020200-
NORTH CENTRAL INDIANA

CITY           SKY/WX    TMP DP  RH WIND       PRES   REMARKS
GOSHEN         PTCLDY    74  60  61 S6        29.91F
LOGANSPORT +   MOCLDY    72  55  56 SW7       29.96R
PERU/GRISSOM   PTCLDY    73  62  68 SW8       29.94S
ROCHESTER +    PTCLDY    79  61  53 W8        29.94R
SOUTH BEND     MOCLDY    79  61  53 SW8       29.91S
WARSAW +       CLOUDY    75  61  60 CALM      29.92S

$$

INZ006>009-017-018-025>027-020200-
NORTHEAST INDIANA

CITY           SKY/WX    TMP DP  RH WIND       PRES   REMARKS
ANGOLA *+      PTCLDY    72  61  68 CALM      29.93S
AUBURN +       CLEAR     70  59  68 CALM      29.93F
FORT WAYNE     MOCLDY    74  61  63 SW7       29.94S
HUNTINGTON +   CLEAR     74  59  58 CALM      29.94S

$$

INZ028-029-035-036-043>045-051>053-020200-
WEST CENTRAL INDIANA

CITY           SKY/WX    TMP DP  RH WIND       PRES   REMARKS
CRAWFORDSVL +  PTCLDY    70  62  75 S3          N/A
GREENCASTLE +  CLEAR     70  59  68 CALM      29.99S
LAFAYETTE      MOCLDY    74  64  71 SW3       29.95S
TERRE HAUTE    CLEAR     76  60  57 S3        29.98S

$$

INZ030>032-037>040-046>048-054>057-064-065-020200-
CENTRAL INDIANA

CITY           SKY/WX    TMP DP  RH WIND       PRES   REMARKS
COLUMBUS       CLEAR     73  55  53 SW5       29.98
FISHERS *+     PTCLDY    70  64  83 CALM      29.98
FRANKFORT +    MOCLDY    72  65  81 S5        29.99S
GREENWOOD *+   PTCLDY    73  55  53 W5        29.99S
INDIANAPOLIS   PTCLDY    75  57  53 W8        29.97S
-EAGLE CREEK   PTCLDY    77  58  51 SW5       29.97S
KOKOMO *+      PTCLDY    75  57  53 SW9       29.96S
MARION +       CLEAR     71  59  67 SW7       29.97S HAZE
MT COMFORT *+  PTCLDY    70  63  78 CALM      29.99S
SHELBYVILLE    PTCLDY    76  60  57 SW6       29.97S
ZIONSVILLE +   PTCLDY    71  64  77 CALM      29.99R

$$

INZ033-034-041-042-049-050-058-059-020200-
EAST CENTRAL INDIANA

CITY           SKY/WX    TMP DP  RH WIND       PRES   REMARKS
MUNCIE         CLEAR     73  57  57 W6        29.97R

$$

INZ060-061-067>069-081>083-085>088-020200-
SOUTHWEST INDIANA

CITY           SKY/WX    TMP DP  RH WIND       PRES   REMARKS
EVANSVILLE     CLEAR     79  62  56 CALM      29.99S
HUNTINGBURG *+ CLEAR     75  63  64 SE3       29.98F
WASHINGTON +   CLEAR     73  63  72 CALM      29.97S

$$

INZ062-063-066-070>080-084-089>092-020200-
SOUTH CENTRAL AND SOUTHEAST INDIANA

CITY           SKY/WX    TMP DP  RH WIND       PRES   REMARKS
BLOOMINGTON    CLEAR     70  66  87 CALM      29.99F
MADISON *+     CLEAR     70  63  78 CALM      30.01S
NORTH VERNON + CLEAR     73  64  73 CALM      29.99S
SEYMOUR +      CLEAR     73  63  68 CALM      29.98S

$$




USA.gov is the U.S. government's official web portal to all federal, state and local government web resources and services.